ARIANE 1 DEB, 27732

Orbit data source: Space-Track

ARIANE 1 DEB, 27732 is space debris in HEO originally from a launch on Mon, 24 Dec 1979 UTC launched from the French Guiana (FRGUI). Debris objects in space refer to the collection of defunct objects orbiting the Earth. Examples of debris include non-operational satellites, rocket bodies, and fragments generated from explosions, collisions, or faulty payload assembly.

Loading next visibility...
Identifier
27732, 1979-104S
Orbit
HEO
Country
Flag of FRFR
Related business
Manufacturer
Unknown
Mission
Spacecraft
Bus & Motor
Unknown
Mass
Unknown
Launch date (UTC)
1979-12-24 (46 years ago)
Launch vehicle
Unknown
Launch site
French Guiana (FRGUI)
Object type
Payload
Rocket body
Debris
Shape & HBR
Unknown shape, 0.3 m
Radar Cross Section
Medium (>0.1 m² and <1 m²)

Expand to show TLE details & history
Last TLE update: 2 days ago

TLE from 2 days ago
0 ARIANE 1 DEB
1 27732U 79104S   26171.23445098 -.00000092  00000-0  13130-1 0  9995
2 27732  16.6658   2.0451 7307100 192.7948 126.3969  1.93132570 86107
Epoch: 2026-06-20T05:37Z
TLE epoch observation values (Epoch: 2026-06-20T05:37:36.564Z)
Latitude
-0.00001°
Longitude
9.1999°
Altitude
37,762.17 km
Speed
1.851 km/s
True Right ascension
00h 08m 13s
True Declination
0° 00' 00"
Sunlit
Object was in daylight at epoch
Visualization orbit readout
Latitude
Unknown
Longitude
Unknown
Altitude
Unknown
Speed
Unknown
Apparent Right ascension
Unknown
Apparent Declination
Unknown
Sunlit
N/A
Visualization observer readout
Local Sidereal Time
00:50:35
Azimuth
Unknown
Elevation
Unknown
Doppler factor
Unknown
Orbital elements
Apogee altitude
40,769.555 km
Perigee altitude
957.813 km
Semi-major axis
27,241.821 km
Eccentricity
0.73071
Inclination
16.6658°
RAAN
2.0451°
Arg. of periapsis
192.7948°
True anomaly
167.24504°
Mean anomaly
126.3969°
Eccentric anomaly
148.35957°
Mean motion
0.48271 °/min
Orbital period
745.78 mins
BSTAR
0.01313
Loading maneuver chart data...
Computing Atmospheric mass density...
Loading historical data...
Loading historical data...
Loading historical data...
Loading historical data...
Loading historical data...
Loading historical data...
Loading historical data...

Documentation

Showing up to 5 results
|